map of PIK home
PIK - Airport
Location
City:  Glasgow, Ayr, Scotland, United Kingdom
Name:Prestwick
ICAO:EGPK
IATA:PIK

Details
Type:Airport (Aerodrome, Airfield)
Use:Public/Civil, International (customs port of entry)
Latitude:5530'34"N (55.509444)
Longitude:435'12"W (-4.586666)
Datum:WGS 1984
Elevation:65 ft (20 m)
Variation:2.39W (WMM2015v2 magnetic declination)
0.22 annual change
Runways:2
Longest:9800 × 150 ft (2987 × 45.5 m), paved

Time
Time Zone:UTC+0 (DST+1)
Local Time:

Weather
METAR:EGPK 041350Z 27013KT 9999 FEW026 08/03 Q1013
TAF:EGPK 041102Z 0412/0512 28015KT 9999 FEW012 SCT025 PROB40
TEMPO 0412/0415 6000 -SHRA BKN012
BECMG 0415/0418 24005KT
BECMG 0509/0512 13010KT

Related Locations
Nearby:
Farthest:SZS: 11758 mi / 18923 km
Ryan's Creek, Stewart Island, STL, NZ

Find:

   beyond  
but within

Other Information
Maps:
NOTAMs:
Links:
Sources:

  
  • flag of United Kingdom
  • flag of Scotland
  

Airport Diagram

Airport diagram for PIK

Larger airport diagram (OBSOLETE) from NGA

Sectional Chart

Flight Planning
at skyvector.com

Satellite Image

Google Maps Satellite view

 

Copyright © 2004-2019 Karl L. Swartz. All rights reserved.
The Great Circle Mapper name and logo are trademarks of the Great Circle Mapper.
All other trademarks mentioned herein belong to their respective owners.
Please see credits for attibutions and further copyright information.

  Follow gcmap on Facebook Follow gcmap on Twitter GCmap on LinkedIn

hCard Microformat

Geo Microformat